Change the Weather History Date:

Tuesday, September 6, 2011

  Actual Average Record
Temperature  
Mean Temperature 62 °F -  
Max Temperature 69 °F 72 °F 84 °F (1999)
Min Temperature 53 °F 43 °F 30 °F (2000)
Degree Days  
Heating Degree Days 4    
Growing Degree Days 12 (Base 50)    
Moisture  
Dew Point 54 °F    
Average Humidity 81    
Maximum Humidity 96    
Minimum Humidity 49    
Precipitation  
Precipitation 0.35 in - - ()
Sea Level Pressure  
Sea Level Pressure 30.06 in    
Wind  
Wind Speed 1 mph (NNW)    
Max Wind Speed 7 mph    
Max Gust Speed -    
Visibility 8 miles    
Events Rain    
Averages and records for this station are not official NWS values.
T = Trace of Precipitation, MM = Missing Value Source: NWS Daily Summary

Daily Weather History Graph

Daily Weather History Graph

Search for Another Location

Airport or City:

Trip Planner

Search our weather history database for the weather conditions in past years. The results will help you decide how hot, cold, wet, or windy it might be!

Date:

Astronomy

Sep. 06, 2011 Rise Set
Actual Time 6:12 AM EDT 7:12 PM EDT
Civil Twilight 5:42 AM EDT 7:42 PM EDT
Nautical Twilight 5:07 AM EDT 8:17 PM EDT
Astronomical Twilight 4:30 AM EDT 8:54 PM EDT
Moon 3:56 PM EDT (9/6) 12:13 AM EDT (9/6)
Length of Visible Light 13h 59m
Length of Day
12h 59m
Waxing Gibbous, 70% of the Moon is Illuminated
Sep 6
Waxing Gibbous
Sep 12
Full
Sep 20
Last Quarter
Sep 27
New
Oct 3
First Quarter

Hourly Weather History & Observations

Time (EDT) Temp. Dew Point Humidity Pressure Visibility Wind Dir Wind Speed Gust Speed Precip Events Conditions
12:52 AM 60.1 °F 57.9 °F 93% 29.94 in 4.0 mi Calm Calm - 0.05 in Rain Rain
1:21 AM 60.8 °F 57.2 °F 88% 29.95 in 6.0 mi Calm Calm - 0.02 in Rain Light Rain
1:52 AM 60.1 °F 57.9 °F 93% 29.96 in 6.0 mi Calm Calm - 0.03 in Rain Light Rain
2:00 AM 60.8 °F 57.2 °F 88% 29.96 in 6.0 mi Calm Calm - 0.01 in Rain Light Rain
2:10 AM 59.0 °F 55.4 °F 88% 29.96 in 6.0 mi Calm Calm - 0.02 in Rain Light Rain
2:52 AM 57.9 °F 55.0 °F 90% 29.94 in 9.0 mi Calm Calm - 0.03 in Rain Light Rain
3:52 AM 57.0 °F 54.0 °F 89% 29.95 in 7.0 mi Calm Calm - 0.02 in Rain Light Rain
4:52 AM 57.0 °F 55.0 °F 93% 29.96 in 6.0 mi Calm Calm - 0.05 in Rain Light Rain
5:52 AM 57.0 °F 55.0 °F 93% 29.97 in 5.0 mi Calm Calm - 0.06 in Rain Light Rain
6:09 AM 57.2 °F 55.4 °F 94% 29.98 in 6.0 mi Calm Calm - 0.02 in Rain Light Rain
6:34 AM 57.2 °F 55.4 °F 94% 29.98 in 5.0 mi NNW 3.5 mph - 0.05 in Rain Rain
7:52 AM 55.9 °F 53.1 °F 90% 30.01 in 4.0 mi NNW 3.5 mph - 0.09 in Rain Light Rain
8:52 AM 57.0 °F 54.0 °F 89% 30.03 in 10.0 mi Calm Calm - 0.02 in Rain Light Rain
9:20 AM 57.2 °F 53.6 °F 88% 30.03 in 10.0 mi Calm Calm - 0.00 in   Overcast
9:52 AM 60.1 °F 54.0 °F 80% 30.04 in 10.0 mi Calm Calm - 0.00 in   Mostly Cloudy
10:00 AM 60.8 °F 53.6 °F 77% 30.03 in 10.0 mi Calm Calm - N/A   Mostly Cloudy
10:26 AM 60.8 °F 53.6 °F 77% 30.05 in 10.0 mi Calm Calm - N/A   Overcast
10:52 AM 62.1 °F 54.0 °F 75% 30.05 in 10.0 mi NW 4.6 mph - N/A   Mostly Cloudy
11:00 AM 62.6 °F 53.6 °F 72% 30.05 in 10.0 mi Variable 3.5 mph - N/A   Mostly Cloudy
11:52 AM 64.0 °F 51.1 °F 63% 30.07 in 10.0 mi NW 5.8 mph - N/A   Mostly Cloudy
12:52 PM 66.9 °F 51.1 °F 57% 30.09 in 10.0 mi Calm Calm - N/A   Scattered Clouds
1:52 PM 68.0 °F 48.9 °F 50% 30.09 in 10.0 mi NNW 6.9 mph - N/A   Scattered Clouds
2:52 PM 68.0 °F 51.1 °F 55% 30.10 in 10.0 mi Variable 3.5 mph - N/A   Overcast
3:52 PM 69.1 °F 48.9 °F 49% 30.12 in 10.0 mi NNE 4.6 mph - N/A   Scattered Clouds
4:52 PM 66.0 °F 53.1 °F 63% 30.14 in 10.0 mi Calm Calm - N/A   Scattered Clouds
5:52 PM 64.0 °F 53.1 °F 67% 30.16 in 10.0 mi Calm Calm - N/A   Scattered Clouds
7:52 PM 57.9 °F 55.0 °F 90% 30.22 in 10.0 mi Calm Calm - N/A   Clear
8:52 PM 57.0 °F 54.0 °F 89% 30.24 in 10.0 mi Calm Calm - N/A   Clear
9:52 PM 55.0 °F 53.1 °F 93% 30.26 in 10.0 mi Calm Calm - N/A   Clear
10:52 PM 54.0 °F 52.0 °F 93% 30.26 in 10.0 mi Calm Calm - N/A   Clear
11:52 PM 53.1 °F 52.0 °F 96% 30.28 in 10.0 mi Calm Calm - N/A   Clear